Location: Dreilärchen
(47.9312°N, 8.6113°E)
Time: 02:57:28
(UTC+00:00)

Cosmos 1953 - Pass Details

Date: 26 May 2022
Orbit: 533 x 555 km, 82.5° (Epoch: 26 June)

Event Time Altitude Azimuth Distance (km) Brightness Sun altitude
Rises 01:20:56 0° 332° (NNW) 2,729 6.4 -16.0°
Reaches altitude 10° 01:24:03 10° 306° (NW) 1,823 5.0 -15.8°
Maximum altitude 01:26:01 13° 276° (W) 1,605 4.5 -15.6°
Enters shadow 01:26:39 13° 266° (W) 1,626 4.4 -15.6°
